This demonstration page uses our WeatherBlox Daily Observations layout. Learn more.

40.92945, -100.16068

Hourly Observations for July 1, 2015

Temp ( °F °C ) Dew Point ( °F °C ) Humidity (%) Winds ( mph kmh ) Pressure ( in mb ) Visibility ( mi km ) Precip ( " mm )
12:15 am 00:15 Clear 75 24.1 68 20 78 78 ENE 8 13 29.74 1007 10 16.0934 N/A
12:35 am 00:35 Clear 75 24 69 20.5 81 81 ENE 12 19 29.74 1007 10 16.0934 N/A
12:55 am 00:55 Clear 74 23.6 69 20.5 83 83 ENE 14 22 29.74 1007 10 16.0934 N/A
1:15 am 01:15 Clear 73 22.7 67 19.3 81 81 ENE 14 22 29.77 1008 10 16.0934 N/A
1:35 am 01:35 Clear 72 22 65 18.1 79 79 ENE 9 15 29.8 1009 10 16.0934 N/A
1:55 am 01:55 Clear 70 21 64 17.6 81 81 ENE 3 6 29.8 1009 10 16.0934 N/A
2:15 am 02:15 Clear 69 20.8 64 17.6 82 82 E 8 13 29.8 1009 10 16.0934 N/A
2:35 am 02:35 Clear 68 20.2 64 17.5 85 85 E 7 11 29.77 1008 7 11.26538 N/A
2:55 am 02:55 Clear 67 19.7 64 17.5 87 87 E 7 11 29.74 1007 7 11.26538 N/A
3:15 am 03:15 Clear 67 19.6 64 17.7 89 89 E 7 11 29.74 1007 7 11.26538 N/A
3:35 am 03:35 Clear 66 19 63 17.3 90 90 E 5 7 29.71 1006 7 11.26538 N/A
3:55 am 03:55 Clear with Mist and Fog 65 18.3 63 17 92 92 NNE 3 6 29.71 1006 5 8.0467 N/A
4:15 am 04:15 Clear with Mist and Fog 64 18 63 17 94 94 NE 6 9 29.71 1006 4 6.43736 N/A
4:35 am 04:35 Clear with Mist and Fog 64 17.9 62 16.9 94 94 NNE 8 13 29.71 1006 4 6.43736 N/A
4:55 am 04:55 Clear with Mist and Fog 64 18 63 17 94 94 NNE 5 7 29.77 1008 5 8.0467 N/A
5:15 am 05:15 Clear with Mist and Fog 64 17.7 62 16.8 95 95 N 6 9 29.77 1008 5 8.0467 N/A
5:35 am 05:35 Clear with Mist and Fog 63 17.4 62 16.5 94 94 NNW 7 11 29.77 1008 4 6.43736 N/A
5:55 am 05:55 Clear with Mist and Fog 63 17.3 62 16.5 95 95 N 7 11 29.77 1008 5 8.0467 N/A
6:15 am 06:15 Sunny with Mist and Fog 63 17.1 61 16.2 94 94 N 3 6 29.77 1008 3 4.82802 N/A
6:35 am 06:35 Sunny with Mist and Fog 62 16.7 61 16 96 96 N 5 7 29.77 1008 2.5 4.02335 N/A
6:55 am 06:55 Sunny with Mist and Fog 63 17 61 16.2 95 95 NNE 8 13 29.77 1008 3 4.82802 N/A
7:15 am 07:15 Sunny with Mist and Fog 64 17.5 62 16.7 95 95 N 6 9 29.8 1009 4 6.43736 N/A
7:35 am 07:35 Sunny with Mist and Fog 64 18 63 17.1 95 95 N 9 15 29.83 1010 4 6.43736 N/A
7:55 am 07:55 Sunny with Mist and Fog 66 18.9 64 17.8 93 93 N 9 15 29.8 1009 5 8.0467 N/A
8:15 am 08:15 Sunny 67 19.5 64 17.9 91 91 NNE 9 15 29.8 1009 7 11.26538 N/A
8:35 am 08:35 Sunny 68 20.1 64 17.8 87 87 NNE 10 17 29.8 1009 7 11.26538 N/A
8:55 am 08:55 Sunny 70 21.2 65 18.1 83 83 NNE 10 17 29.8 1009 10 16.0934 N/A
9:15 am 09:15 Sunny 72 22 65 18.1 79 79 N 9 15 29.8 1009 10 16.0934 N/A
9:35 am 09:35 Sunny 73 23 65 18.2 74 74 N 12 19 29.8 1009 10 16.0934 N/A
9:55 am 09:55 Sunny 75 23.7 65 18.5 73 73 N 9 15 29.8 1009 10 16.0934 N/A
10:15 am 10:15 Sunny 76 24.4 66 18.8 71 71 N 10 17 29.8 1009 10 16.0934 N/A
10:35 am 10:35 Sunny 78 25.8 67 19.2 67 67 N 10 17 29.77 1008 10 16.0934 N/A
10:55 am 10:55 Sunny 79 26.1 67 19.3 66 66 N 9 15 29.77 1008 10 16.0934 N/A
11:15 am 11:15 Sunny 80 26.9 67 19.5 64 64 N 8 13 29.77 1008 10 16.0934 N/A
11:35 am 11:35 Sunny 82 27.5 67 19.5 62 62 N 9 15 29.77 1008 10 16.0934 N/A
11:55 am 11:55 Sunny 83 28.1 67 19.5 60 60 NE 10 17 29.77 1008 10 16.0934 N/A
12:15 pm 12:15 Sunny 84 28.7 67 19.6 58 58 NE 8 13 29.77 1008 10 16.0934 N/A
12:35 pm 12:35 Sunny 84 28.8 67 19.7 58 58 NNE 9 15 29.77 1008 10 16.0934 N/A
12:55 pm 12:55 Sunny 86 29.8 68 20 56 56 NNE 10 17 29.74 1007 10 16.0934 N/A
1:15 pm 13:15 Sunny 86 30 68 19.8 54 54 NNE 8 13 29.74 1007 10 16.0934 N/A
1:35 pm 13:35 Sunny 86 30.1 67 19.6 53 53 NE 8 13 29.74 1007 10 16.0934 N/A
1:55 pm 13:55 Sunny 87 30.6 67 19.7 52 52 NE 12 19 29.74 1007 10 16.0934 N/A
2:15 pm 14:15 Sunny 88 30.9 68 19.8 52 52 NE 9 15 29.74 1007 7 11.26538 N/A
2:35 pm 14:35 Sunny 89 31.4 67 19.7 50 50 NE 7 11 29.74 1007 7 11.26538 N/A
2:55 pm 14:55 Sunny 88 31 67 19.4 50 50 ENE 5 7 29.74 1007 10 16.0934 N/A
3:15 pm 15:15 Sunny 88 31.3 66 19 48 48 ENE 8 13 29.74 1007 10 16.0934 N/A
3:35 pm 15:35 Sunny 89 31.8 65 18.4 45 45 NE 10 17 29.74 1007 10 16.0934 N/A
3:55 pm 15:55 Sunny 90 32.2 65 18.6 44 44 NNE 7 11 29.74 1007 10 16.0934 N/A
4:15 pm 16:15 Sunny 89 31.8 65 18.6 45 45 NNE 8 13 29.74 1007 10 16.0934 N/A
4:35 pm 16:35 Sunny 90 32.1 65 18.4 44 44 ENE 6 9 29.74 1007 7 11.26538 N/A
4:55 pm 16:55 Sunny 90 32 65 18.4 44 44 E 6 9 29.74 1007 10 16.0934 N/A
5:15 pm 17:15 Sunny 89 31.9 65 18.4 45 45 ENE 8 13 29.74 1007 10 16.0934 N/A
5:35 pm 17:35 Sunny 90 32.2 65 18.4 44 44 E 7 11 29.74 1007 10 16.0934 N/A
5:55 pm 17:55 Sunny 88 31.3 65 18.5 46 46 ENE 8 13 29.74 1007 10 16.0934 N/A
6:15 pm 18:15 Sunny 89 31.6 66 18.9 47 47 ESE 6 9 29.74 1007 10 16.0934 N/A
6:35 pm 18:35 Sunny 89 31.7 65 18.5 45 45 ENE 3 6 29.74 1007 10 16.0934 N/A
6:55 pm 18:55 Sunny 92 33.3 58 14.4 32 32 SE 7 11 29.62 1003 10 16.0934 N/A
7:15 pm 19:15 Sunny 88 31.3 66 19.1 48 48 ESE 8 13 29.74 1007 10 16.0934 N/A
7:35 pm 19:35 Partly Cloudy 87 30.5 66 19.1 51 51 ESE 7 11 29.74 1007 10 16.0934 N/A
7:55 pm 19:55 Partly Cloudy 86 30 67 19.3 53 53 E 7 11 29.74 1007 10 16.0934 N/A
8:15 pm 20:15 Partly Cloudy 85 29.2 67 19.5 56 56 ESE 7 11 29.77 1008 10 16.0934 N/A
8:35 pm 20:35 Sunny 83 28.5 69 20.3 61 61 ESE 6 9 29.77 1008 10 16.0934 N/A
8:55 pm 20:55 Sunny 82 27.9 69 20.3 63 63 SE 6 9 29.77 1008 10 16.0934 N/A
9:15 pm 21:15 Clear 81 27.2 69 20.5 67 67 SE 7 11 29.77 1008 10 16.0934 N/A
9:55 pm 21:55 Clear 79 25.9 68 20.2 71 71 SE 6 9 29.77 1008 10 16.0934 N/A
10:15 pm 22:15 Clear 79 25.9 68 20 70 70 ESE 6 9 29.83 1010 10 16.0934 N/A
10:35 pm 22:35 Clear with Nearby Thunderstorms 77 24.8 68 20 75 75 ESE 6 9 29.83 1010 10 16.0934 N/A
10:55 pm 22:55 Clear 74 23.1 69 20.3 84 84 E 7 11 29.88 1012 7 11.26538 N/A

Powered by AerisWeather